EW7199 Weather Reports


time (UTC)temp
C
wind
direction
speed
KPH
gust
KPH
rain 1hr
cm
rain 24hr
cm
rain mn
cm
humidity
%
barometer
mb
20260507191910 17 87 3.2 4.8 0.00 0.33 0.33 70 1014.3
20260507191411 17 84 3.2 4.8 0.00 0.33 0.33 70 1014.3
20260507190908 17 72 3.2 4.8 0.00 0.33 0.33 70 1014.1
20260507190423 17 80 3.2 4.8 0.00 0.33 0.33 70 1014.1
20260507185908 17 81 3.2 4.8 0.00 0.33 0.33 69 1014.1
20260507185410 17 76 3.2 4.8 0.00 0.33 0.33 69 1014.2
20260507184910 17 71 3.2 4.8 0.00 0.33 0.33 68 1014.2
20260507184411 17 101 3.2 4.8 0.00 0.33 0.33 68 1014.3
20260507183909 17 91 3.2 4.8 0.00 0.33 0.33 68 1014.3
20260507183410 17 103 3.2 4.8 0.00 0.33 0.33 68 1014.2
20260507182910 17 86 3.2 4.8 0.00 0.33 0.33 68 1014.3
20260507182409 17 103 3.2 4.8 0.00 0.33 0.33 68 1014.3
20260507181909 17 125 3.2 4.8 0.00 0.33 0.33 68 1014.4
20260507181410 17 124 3.2 4.8 0.00 0.33 0.33 68 1014.4
20260507180910 17 114 3.2 4.8 0.00 0.33 0.33 68 1014.3
20260507180410 17 106 3.2 4.8 0.00 0.33 0.33 68 1014.2
20260507175909 17 111 3.2 4.8 0.00 0.33 0.33 68 1014.1
20260507175410 17 129 3.2 4.8 0.00 0.33 0.33 68 1014.1
20260507174910 18 97 3.2 4.8 0.00 0.33 0.33 67 1014.1
20260507174412 18 89 3.2 9.7 0.00 0.33 0.33 67 1014.1
20260507173909 18 92 1.6 4.8 0.00 0.33 0.33 67 1014.1
20260507173409 18 157 3.2 4.8 0.00 0.33 0.33 66 1014.2
20260507172909 18 122 3.2 4.8 0.00 0.33 0.33 65 1014.2
20260507172410 18 119 1.6 4.8 0.00 0.33 0.33 63 1014.1
20260507171909 18 66 1.6 4.8 0.00 0.33 0.33 63 1014.2
20260507171410 18 122 3.2 4.8 0.00 0.33 0.33 62 1014.1
20260507170910 18 128 3.2 4.8 0.00 0.33 0.33 62 1014.1
20260507165909 18 106 3.2 8.0 0.00 0.33 0.33 61 1014.2
20260507165410 18 121 3.2 4.8 0.00 0.33 0.33 60 1014.2
20260507164910 19 116 3.2 4.8 0.00 0.33 0.33 58 1014.1
20260507164410 19 163 3.2 4.8 0.00 0.33 0.33 56 1014.2
20260507163910 19 119 3.2 4.8 0.00 0.33 0.33 55 1014.2
20260507163408 19 121 4.8 4.8 0.00 0.33 0.33 54 1014.2
20260507162910 20 137 3.2 4.8 0.00 0.33 0.33 51 1014.3
20260507161909 20 128 4.8 8.0 0.00 0.33 0.33 50 1014.3
20260507161409 20 126 4.8 4.8 0.00 0.33 0.33 49 1014.2
20260507160909 20 143 4.8 8.0 0.00 0.33 0.33 48 1014.0
20260507160417 20 156 1.6 4.8 0.00 0.33 0.33 48 1014.0
20260507155910 20 130 4.8 9.7 0.00 0.33 0.33 46 1014.0
20260507155410 20 141 3.2 4.8 0.00 0.33 0.33 46 1014.1
20260507154909 20 118 4.8 8.0 0.00 0.33 0.33 46 1014.1
20260507154410 20 139 3.2 8.0 0.00 0.33 0.33 46 1014.2
20260507153910 20 146 3.2 8.0 0.00 0.33 0.33 45 1014.3
20260507153409 20 145 3.2 8.0 0.00 0.33 0.33 44 1014.3
20260507152910 20 130 4.8 4.8 0.00 0.33 0.33 43 1014.3
20260507152410 20 152 3.2 9.7 0.00 0.33 0.33 47 1014.4
20260507151910 20 120 3.2 8.0 0.00 0.33 0.33 46 1014.5
20260507151409 20 113 3.2 4.8 0.00 0.33 0.33 47 1014.5
20260507150910 20 135 4.8 8.0 0.00 0.33 0.33 47 1014.5
20260507145909 20 134 3.2 8.0 0.00 0.33 0.33 45 1014.6
20260507145410 20 111 3.2 4.8 0.00 0.33 0.33 45 1014.7
20260507144909 20 132 3.2 4.8 0.00 0.33 0.33 44 1014.7
20260507144413 20 125 4.8 8.0 0.00 0.33 0.33 44 1014.7
20260507143909 21 132 4.8 4.8 0.00 0.33 0.33 45 1014.6
20260507143408 20 120 3.2 4.8 0.00 0.33 0.33 44 1014.5
20260507142909 20 127 3.2 4.8 0.00 0.33 0.33 45 1014.6
20260507142408 20 130 4.8 9.7 0.00 0.33 0.33 41 1014.7
20260507141908 20 141 4.8 4.8 0.00 0.33 0.33 43 1014.8
20260507141409 21 139 4.8 8.0 0.00 0.33 0.33 44 1014.9
20260507140910 21 124 3.2 8.0 0.00 0.33 0.33 43 1015.0
20260507140410 20 119 3.2 9.7 0.00 0.33 0.33 44 1015.0
20260507135908 20 134 6.4 9.7 0.00 0.33 0.33 43 1014.9
20260507134409 21 210 3.2 8.0 0.00 0.33 0.33 45 1015.0
20260507133909 21 125 1.6 4.8 0.00 0.33 0.33 45 1015.1
20260507133409 21 109 3.2 9.7 0.00 0.33 0.33 45 1015.2
20260507132909 21 167 3.2 4.8 0.00 0.33 0.33 46 1015.2
20260507130910 20 139 3.2 9.7 0.00 0.33 0.33 54 1015.1
20260507130412 20 134 3.2 4.8 0.00 0.33 0.33 54 1015.2
20260507125909 20 135 3.2 4.8 0.00 0.33 0.33 52 1015.2
20260507125410 20 165 3.2 4.8 0.00 0.33 0.33 51 1015.2
20260507124909 20 238 1.6 4.8 0.00 0.33 0.33 54 1015.4
20260507124412 20 145 1.6 4.8 0.00 0.33 0.33 58 1015.5
20260507123909 20 263 1.6 4.8 0.00 0.33 0.33 63 1015.5
20260507123410 19 152 4.8 9.7 0.00 0.33 0.33 64 1015.6
20260507122909 19 139 6.4 11.3 0.00 0.33 0.33 67 1015.7
20260507122410 19 223 4.8 9.7 0.00 0.33 0.33 65 1015.5
20260507121910 19 120 4.8 4.8 0.00 0.33 0.33 69 1015.5
20260507121409 20 130 4.8 9.7 0.00 0.33 0.33 69 1015.6
20260507120910 20 135 3.2 4.8 0.00 0.33 0.33 70 1015.5
20260507120410 19 225 1.6 8.0 0.00 0.33 0.33 69 1015.6
20260507115909 19 165 4.8 8.0 0.00 0.33 0.33 73 1015.7
20260507115409 19 146 4.8 9.7 0.00 0.33 0.33 73 1015.8
20260507114908 18 146 3.2 4.8 0.00 0.33 0.33 77 1016.0
20260507114409 18 109 1.6 8.0 0.00 0.33 0.33 79 1016.1
20260507113910 18 125 3.2 8.0 0.00 0.33 0.33 78 1016.2
20260507113410 18 91 1.6 8.0 0.00 0.33 0.33 80 1016.1
20260507112910 18 154 1.6 4.8 0.00 0.33 0.33 81 1016.0
20260507112409 18 150 3.2 8.0 0.00 0.33 0.33 80 1016.0
20260507111910 18 154 3.2 4.8 0.00 0.33 0.33 80 1016.0
20260507111410 18 147 3.2 4.8 0.00 0.33 0.33 81 1016.2
20260507110910 18 37 3.2 4.8 0.00 0.33 0.33 80 1016.1
20260507110411 18 81 1.6 4.8 0.00 0.33 0.33 81 1016.2
20260507105909 18 233 3.2 4.8 0.00 0.33 0.33 82 1016.3
20260507105410 18 137 3.2 9.7 0.00 0.33 0.33 82 1016.4
20260507104909 18 90 3.2 4.8 0.00 0.33 0.33 83 1016.3
20260507104408 17 186 4.8 9.7 0.00 0.33 0.33 83 1016.3
20260507103910 18 140 4.8 8.0 0.00 0.33 0.33 83 1016.3
20260507103409 18 141 4.8 9.7 0.00 0.33 0.33 83 1016.4
20260507102910 18 161 3.2 4.8 0.00 0.33 0.33 84 1016.3
20260507102409 18 138 3.2 4.8 0.00 0.33 0.33 84 1016.4
20260507101910 18 150 3.2 8.0 0.00 0.33 0.33 84 1016.3
20260507101409 18 129 3.2 8.0 0.00 0.33 0.33 84 1016.1
20260507100909 18 143 4.8 11.3 0.00 0.33 0.33 83 1016.3
20260507100434 18 135 3.2 9.7 0.00 0.33 0.33 84 1016.3
20260507095908 18 138 3.2 11.3 0.00 0.33 0.33 85 1016.4
20260507095409 18 140 6.4 11.3 0.00 0.33 0.33 84 1016.3
20260507094908 18 160 3.2 4.8 0.00 0.33 0.33 86 1016.4
20260507094409 18 137 4.8 4.8 0.00 0.33 0.33 85 1016.4
20260507093909 18 143 3.2 8.0 0.00 0.33 0.33 85 1016.4
20260507093409 17 136 4.8 11.3 0.00 0.33 0.33 86 1016.2
20260507092909 17 154 3.2 9.7 0.00 0.33 0.33 86 1016.2
20260507092408 17 121 4.8 9.7 0.00 0.33 0.33 86 1016.3
20260507091908 17 89 4.8 14.5 0.00 0.33 0.33 86 1016.3
20260507091409 17 111 3.2 9.7 0.00 0.33 0.33 86 1016.1
20260507090909 17 131 4.8 9.7 0.00 0.33 0.33 86 1016.1
20260507085910 17 106 3.2 9.7 0.00 0.33 0.33 87 1016.0
20260507085409 17 117 4.8 11.3 0.00 0.33 0.33 88 1015.7
20260507084909 17 105 3.2 9.7 0.00 0.33 0.33 88 1015.8
20260507084409 17 111 4.8 11.3 0.00 0.33 0.33 88 1015.7
20260507083909 17 113 3.2 9.7 0.00 0.33 0.33 88 1015.6
20260507083409 17 113 3.2 11.3 0.00 0.33 0.33 89 1015.4
20260507082909 17 111 4.8 9.7 0.00 0.33 0.33 89 1015.1
20260507082409 17 95 4.8 11.3 0.00 0.33 0.33 89 1015.2
20260507081910 17 111 4.8 11.3 0.00 0.33 0.33 89 1015.2
20260507080909 17 133 3.2 12.9 0.03 0.33 0.33 90 1015.3
20260507080411 17 114 3.2 12.9 0.03 0.33 0.33 90 1015.3
20260507075909 17 89 4.8 9.7 0.03 0.33 0.33 90 1015.3
20260507075409 17 98 3.2 4.8 0.03 0.33 0.33 90 1015.5
20260507074908 17 247 3.2 4.8 0.03 0.33 0.33 90 1015.5
20260507074410 17 113 1.6 9.7 0.03 0.33 0.33 90 1015.7
20260507073909 17 86 4.8 9.7 0.03 0.33 0.33 90 1015.6
20260507073409 17 88 3.2 4.8 0.03 0.33 0.33 90 1015.8
20260507072909 17 117 4.8 9.7 0.03 0.33 0.33 90 1015.8
20260507072409 17 92 3.2 9.7 0.03 0.33 0.33 90 1015.9
20260507071909 17 99 3.2 8.0 0.03 0.33 0.33 91 1016.0
20260507071408 17 121 4.8 9.7 0.03 0.33 0.33 91 1016.3
20260507070908 17 83 4.8 9.7 0.00 0.30 0.30 91 1016.0
20260507070410 17 83 3.2 4.8 0.00 0.30 0.30 91 1016.8
20260507065909 16 134 3.2 4.8 0.00 0.30 0.30 92 1017.2
20260507065409 16 282 3.2 4.8 0.00 0.30 0.30 92 1017.1
20260507064909 16 102 3.2 4.8 0.00 0.30 0.30 92 1017.0
20260507064410 16 80 4.8 4.8 0.00 0.30 0.30 92 1017.0
20260507063909 16 74 1.6 4.8 0.00 0.30 0.30 92 1017.0
20260507062409 16 85 3.2 4.8 0.00 0.30 0.30 92 1016.9
20260507061908 16 79 3.2 4.8 0.00 0.30 0.30 92 1016.8
20260507060909 16 38 1.6 4.8 0.00 0.30 0.30 92 1016.6
20260507060413 16 58 1.6 4.8 0.00 0.30 0.30 92 1016.6
20260507055408 16 38 3.2 4.8 0.00 0.30 0.30 92 1016.7
20260507054411 16 73 3.2 4.8 0.00 0.30 0.30 92 1016.8
20260507053909 16 84 3.2 4.8 0.00 0.30 0.30 93 1016.9
20260507053408 16 63 1.6 4.8 0.00 0.30 0.30 93 1017.0
20260507052909 16 38 0.0 4.8 0.00 0.30 0.30 93 1016.9
20260507051908 16 90 3.2 4.8 0.00 0.30 0.30 93 1016.8
20260507051409 16 98 1.6 4.8 0.00 0.30 0.30 93 1016.8
20260507050909 16 132 1.6 4.8 0.00 0.30 0.30 93 1016.7
20260507050410 16 126 1.6 4.8 0.00 0.30 0.30 93 1016.6
20260507045908 16 133 1.6 4.8 0.00 0.30 0.30 93 1016.3
20260507045409 16 93 3.2 4.8 0.00 0.30 0.30 93 1015.7
20260507044909 16 67 3.2 4.8 0.00 0.30 0.30 93 1015.3
20260507044409 16 59 3.2 4.8 0.00 0.30 0.30 93 1015.3
20260507043909 16 78 1.6 4.8 0.00 0.30 0.30 93 1015.4
20260507043409 16 57 3.2 4.8 0.00 0.30 0.30 93 1014.9
20260507042909 16 60 3.2 4.8 0.00 0.30 0.30 93 1015.0
20260507042409 16 50 3.2 4.8 0.00 0.30 0.30 93 1014.8
20260507041908 16 64 3.2 4.8 0.03 0.30 0.30 94 1015.0
20260507041408 16 79 3.2 4.8 0.03 0.30 0.30 93 1014.9
20260507040909 16 58 3.2 8.0 0.03 0.30 0.30 93 1015.0
20260507040410 16 70 1.6 4.8 0.03 0.30 0.30 93 1015.5
20260507035408 16 83 3.2 4.8 0.05 0.30 0.30 93 1015.6
20260507034409 16 60 3.2 4.8 0.05 0.30 0.30 93 1015.6
20260507033909 16 88 3.2 4.8 0.05 0.30 0.30 93 1015.4
20260507033408 16 53 3.2 4.8 0.05 0.30 0.30 93 1015.3
20260507032909 16 67 3.2 4.8 0.05 0.30 0.30 93 1015.4
20260507032409 16 54 3.2 4.8 0.05 0.30 0.30 93 1015.4
20260507031908 16 57 3.2 4.8 0.03 0.28 0.28 93 1015.4
20260507031408 16 45 3.2 4.8 0.03 0.28 0.28 93 1015.5
20260507030909 16 77 3.2 4.8 0.03 0.28 0.28 93 1015.7
20260507030410 16 93 3.2 4.8 0.03 0.28 0.28 93 1015.7
20260507025908 16 92 1.6 3.2 0.00 0.25 0.25 93 1015.8
20260507025409 16 94 1.6 4.8 0.00 0.25 0.25 93 1015.9
20260507024409 16 77 1.6 4.8 0.00 0.25 0.25 93 1015.7
20260507023408 16 101 3.2 4.8 0.00 0.25 0.25 93 1015.5
20260507022908 16 103 1.6 4.8 0.05 0.25 0.25 93 1015.5
20260507021908 16 124 3.2 8.0 0.15 0.25 0.25 93 1015.5
20260507021408 16 111 3.2 4.8 0.15 0.25 0.25 93 1015.4
20260507015908 16 119 3.2 8.0 0.18 0.25 0.25 93 1014.7
20260507014908 16 83 3.2 4.8 0.20 0.25 0.25 92 1014.2
20260507013908 16 60 4.8 9.7 0.20 0.25 0.25 92 1013.5
20260507013408 16 53 4.8 9.7 0.20 0.25 0.25 92 1013.3
20260507012407 16 51 3.2 8.0 0.08 0.13 0.13 92 1015.0
20260507011907 16 83 1.6 4.8 0.05 0.10 0.10 92 1015.6
20260507010909 16 5 1.6 4.8 0.03 0.08 0.08 92 1015.5
20260507010409 16 46 3.2 8.0 0.03 0.08 0.08 92 1015.3
20260507005908 16 286 0.0 3.2 0.03 0.08 0.08 92 1015.4
20260507005409 16 270 1.6 4.8 0.00 0.05 0.05 92 1015.3
20260507004909 16 15 1.6 4.8 0.00 0.05 0.05 92 1015.1
20260507004411 16 80 1.6 4.8 0.00 0.05 0.05 92 1015.3
20260507003408 16 112 3.2 4.8 0.00 0.05 0.05 92 1015.0
20260507002912 16 144 1.6 4.8 0.00 0.05 0.05 92 1014.9
20260507002409 16 107 1.6 4.8 0.00 0.05 0.05 92 1014.8
20260507001909 16 166 1.6 4.8 0.00 0.05 0.05 92 1014.9
20260507000909 16 108 1.6 4.8 0.00 0.05 0.05 92 1014.9
20260507000412 16 136 1.6 4.8 0.00 0.05 0.05 92 1015.0
20260506235909 16 100 3.2 4.8 0.00 0.05 0.05 92 1014.9
20260506234909 16 120 3.2 4.8 0.00 0.05 0.05 92 1014.9
20260506234410 16 95 3.2 4.8 0.03 0.05 0.05 92 1014.9
20260506233409 16 111 1.6 4.8 0.03 0.05 0.05 91 1015.0
20260506232915 16 135 3.2 4.8 0.03 0.05 0.05 91 1015.1
20260506231908 16 86 3.2 4.8 0.05 0.05 0.05 91 1014.8
20260506231408 16 70 1.6 4.8 0.05 0.05 0.05 91 1015.0
20260506230909 16 95 3.2 4.8 0.05 0.05 0.05 91 1014.9
20260506230411 17 81 3.2 4.8 0.05 0.05 0.05 90 1014.8
20260506225909 17 86 3.2 4.8 0.05 0.05 0.05 90 1014.8
20260506225407 17 111 3.2 4.8 0.05 0.05 0.05 90 1015.2
20260506224908 17 137 3.2 4.8 0.05 0.05 0.05 90 1015.3
20260506224408 17 96 3.2 4.8 0.03 0.03 0.03 89 1015.3
20260506223908 17 100 1.6 4.8 0.03 0.03 0.03 89 1015.3
20260506223409 17 77 3.2 4.8 0.03 0.03 0.03 89 1015.2
20260506222908 17 93 1.6 3.2 0.03 0.03 0.03 89 1015.3
20260506222409 17 146 3.2 4.8 0.00 0.00 0.00 89 1015.3
20260506221908 17 119 1.6 4.8 0.00 0.00 0.00 88 1015.2
20260506221408 17 86 3.2 4.8 0.00 0.00 0.00 88 1015.2
20260506220909 17 106 3.2 4.8 0.00 0.00 0.00 88 1015.2
20260506220408 17 91 3.2 4.8 0.00 0.00 0.00 88 1015.2
20260506215908 17 85 1.6 4.8 0.00 0.00 0.00 88 1015.2
20260506215409 17 118 1.6 4.8 0.00 0.00 0.00 88 1015.2
20260506214408 17 123 1.6 4.8 0.00 0.00 0.00 88 1015.2
20260506213909 17 152 3.2 4.8 0.00 0.00 0.00 88 1015.1
20260506213408 17 103 3.2 4.8 0.00 0.00 0.00 88 1015.1
20260506212409 17 145 3.2 8.0 0.00 0.00 0.00 88 1015.2
20260506211909 17 142 3.2 4.8 0.00 0.00 0.00 88 1015.2
20260506211407 17 131 3.2 4.8 0.00 0.00 0.00 88 1015.1
20260506210909 17 32 3.2 4.8 0.00 0.00 0.00 88 1015.1